Tracking 28052 objects as of 24-Sep-2023
HD Live streaming from Space Station
objects crossing your sky now

THORAD DELTA 1 DEB

Track THORAD DELTA 1 DEB now!
10-day predictions


NORAD ID: 8146
Int'l Code: 1974-089Q
Perigee: 1,306.2 km
Apogee: 1,597.3 km
Inclination: 101.9 °
Period: 114.8 minutes
Semi major axis: 7822 km
RCS: 0.2088 m2 (medium)
Launch date: November 15, 1974
Source: United States (US)
Launch site: AIR FORCE WESTERN TEST RANGE (AFWTR)

Note: This is SATELLITE DEBRIS
Your satellite tracking list
Your tracking list is empty




NASA's NSSDC Master Catalog

Two Line Element Set (TLE):
1 08146U 74089Q   23267.51101191  .00000026  00000-0  42302-3 0  9998
2 08146 101.8965 239.0597 0186085 254.0433 220.7261 12.54763484236101
Source of the keplerian elements: AFSPC